Greybull, WY

7:44 PM MST on December 13, 2019 (GMT -0700)
South Big Horn County

Weather History for KGEY - October, 2019

Change the Weather History Date:

Tuesday, October 1, 2019

  Actual Average Record
Temperature  
Mean Temperature 39 °F 52 °F  
Max Temperature 42 °F 66 °F 91 °F (2011)
Min Temperature 36 °F 37 °F 30 °F (2003)
Degree Days  
Heating Degree Days 26 13  
Month to date heating degree days 13  
Since 1 July heating degree days 244  
Cooling Degree Days 0 0  
Month to date cooling degree days 0  
Year to date cooling degree days 669  
Moisture  
Dew Point 33 °F    
Average Humidity 81    
Maximum Humidity 86    
Minimum Humidity 73    
Precipitation  
Precipitation 0.02 in 0.03 in 0.26 in (2000)
Month to date precipitation 0.03  
Year to date precipitation 6.36  
Sea Level Pressure  
Sea Level Pressure 30.10 in    
Wind  
Wind Speed 10 mph (NW)    
Max Wind Speed 15 mph    
Max Gust Speed -    
Visibility 10 miles    
Events Rain , Snow    
T = Trace of Precipitation, MM = Missing Value Source: NWS Daily Summary

Daily Weather History Graph

Daily Weather History Graph

Search for Another Location

Airport or City:

Astronomy

Oct. 01, 2019 Rise Set
Actual Time 7:09 AM MDT 6:53 PM MDT
Civil Twilight 6:40 AM MDT 7:22 PM MDT
Nautical Twilight 6:07 AM MDT 7:55 PM MDT
Astronomical Twilight 5:32 AM MDT 8:30 PM MDT
Moon 10:36 AM MDT (10/1) 9:00 PM MDT (10/1)
Length of Visible Light 12h 41m
Length of Day
11h 43m
Waxing Crescent, 12% of the Moon is Illuminated
Oct 1
Waxing Crescent
Oct 5
First Quarter
Oct 13
Full
Oct 21
Last Quarter
Oct 27
New

Hourly Weather History & Observations

Time (MDT) Temp. Windchill Dew Point Humidity Pressure Visibility Wind Dir Wind Speed Gust Speed Precip Events Conditions
12:53 AM 39.9 °F 34.5 °F 34.0 °F 79% 30.08 in 10.0 mi WNW 8.1 mph - N/A   Overcast
1:53 AM 39.9 °F 35.1 °F 35.1 °F 83% 30.08 in 10.0 mi WNW 6.9 mph - 0.01 in Rain Light Rain
2:53 AM 39.0 °F 31.8 °F 34.0 °F 82% 30.06 in 10.0 mi NW 11.5 mph - 0.00 in   Overcast
3:53 AM 39.0 °F 34.0 °F 34.0 °F 82% 30.05 in 10.0 mi WNW 6.9 mph - N/A   Overcast
4:53 AM 37.9 °F 32.1 °F 34.0 °F 86% 30.07 in 10.0 mi WNW 8.1 mph - N/A   Overcast
5:28 AM 37.9 °F 32.1 °F 33.1 °F 83% 30.05 in 10.0 mi WNW 8.1 mph - N/A   Overcast
5:53 AM 37.9 °F 31.5 °F 32.0 °F 79% 30.08 in 10.0 mi NW 9.2 mph - N/A   Overcast
6:53 AM 37.0 °F 29.3 °F 32.0 °F 82% 30.10 in 10.0 mi NW 11.5 mph - N/A   Overcast
7:20 AM 37.0 °F 30.4 °F 32.0 °F 82% 30.06 in 10.0 mi NW 9.2 mph - N/A   Overcast
7:53 AM 36.0 °F 30.3 °F 32.0 °F 86% 30.12 in 10.0 mi NW 6.9 mph - N/A   Overcast
8:53 AM 36.0 °F 29.0 °F 30.9 °F 82% 30.13 in 10.0 mi WNW 9.2 mph - N/A   Overcast
9:53 AM 36.0 °F 27.5 °F 30.9 °F 82% 30.14 in 10.0 mi NW 12.7 mph - 0.00 in   Overcast
10:53 AM 36.0 °F 27.5 °F 32.0 °F 86% 30.14 in 9.0 mi NW 12.7 mph - 0.01 in Snow Light Snow
11:53 AM 36.0 °F 26.7 °F 32.0 °F 86% 30.14 in 10.0 mi NW 15.0 mph - 0.00 in   Overcast
12:06 PM 36.0 °F 27.1 °F 32.0 °F 86% 30.08 in 10.0 mi NW 13.8 mph - N/A   Overcast
12:30 PM 37.0 °F 29.3 °F 32.0 °F 82% 30.08 in 10.0 mi NW 11.5 mph - 0.00 in   Overcast
12:42 PM 37.0 °F 29.3 °F 33.1 °F 86% 30.07 in 10.0 mi NW 11.5 mph - 0.00 in Rain Light Rain
12:53 PM 37.0 °F 29.3 °F 33.1 °F 86% 30.13 in 10.0 mi NNW 11.5 mph - 0.00 in   Overcast
1:21 PM 37.9 °F 30.0 °F 33.1 °F 83% 30.07 in 10.0 mi NNW 12.7 mph - N/A   Overcast
1:35 PM 37.9 °F 30.0 °F 32.0 °F 79% 30.07 in 10.0 mi NNW 12.7 mph - N/A   Overcast
1:53 PM 39.0 °F 31.0 °F 32.0 °F 76% 30.12 in 10.0 mi NNW 13.8 mph - N/A   Overcast
2:53 PM 41.0 °F 34.3 °F 33.1 °F 73% 30.10 in 10.0 mi NNW 11.5 mph - N/A   Overcast
3:53 PM 42.1 °F 35.7 °F 34.0 °F 73% 30.09 in 10.0 mi NNW 11.5 mph - N/A   Overcast
4:53 PM 42.1 °F 36.6 °F 34.0 °F 73% 30.10 in 10.0 mi NNW 9.2 mph - N/A   Overcast
5:53 PM 41.0 °F 33.9 °F 33.1 °F 73% 30.11 in 10.0 mi NNW 12.7 mph - N/A   Overcast
6:14 PM 41.0 °F 34.7 °F 33.1 °F 73% 30.07 in 10.0 mi NW 10.4 mph - N/A   Overcast
6:53 PM 39.0 °F 31.8 °F 33.1 °F 79% 30.13 in 10.0 mi WNW 11.5 mph - N/A   Overcast
7:53 PM 39.0 °F 31.8 °F 33.1 °F 79% 30.14 in 10.0 mi NW 11.5 mph - N/A   Overcast
8:38 PM 37.9 °F 30.9 °F 33.1 °F 83% 30.09 in 10.0 mi WNW 10.4 mph - N/A   Overcast
8:53 PM 37.9 °F 30.5 °F 33.1 °F 83% 30.16 in 10.0 mi NW 11.5 mph - N/A   Overcast
9:53 PM 37.0 °F 28.9 °F 32.0 °F 82% 30.17 in 10.0 mi NW 12.7 mph - N/A   Overcast
10:30 PM 37.0 °F 29.8 °F 32.0 °F 82% 30.10 in 10.0 mi NW 10.4 mph - N/A   Overcast
10:42 PM 37.0 °F 31.0 °F 33.1 °F 86% 30.10 in 10.0 mi NW 8.1 mph - N/A   Overcast
10:53 PM 37.0 °F 29.8 °F 33.1 °F 86% 30.17 in 10.0 mi WNW 10.4 mph - N/A   Overcast
11:53 PM 37.0 °F 31.0 °F 33.1 °F 86% 30.15 in 10.0 mi WNW 8.1 mph - N/A   Overcast